星链-31919 (STARLINK-31919 )

导读 | 豆包AI

STARLINK-31919是美国太空探索技术公司星链星座的一员,于2024年5月24日发射入轨。星链项目旨在构建全球卫星互联网,该卫星承担低轨通信组网任务,为全球偏远地区、海上空域等提供宽带互联网接入服务,进一步扩充了星链低轨卫星星座的规模,助力完善全球覆盖的卫星通信网络。

基本信息
目录编号:
59880
目录名称:
STARLINK-31919
国际标识:
2024-098Y
轨道中心:
EARTH
卫星名称:
星链-31919
卫星全名:
星链-31919 (STARLINK-31919 )
卫星状态:
在轨 (已飞行660 天)
发射日期:
2024-05-24 UTC
国别 :
美国 (US)
星等 :
--
轨道信息
数据来源 国际轨道数据
星历时间: 2026-03-15T19:53:42+0800
9小时前
查看轨道信息
半长轴: 6861.211km
偏心率: 0.0000409
轨道倾角: 42.998°
近地点辐角 279.957°
升交点赤经 245.243°
平近点角 80.123°
近地点: 482.793km
远地点: 483.355km
周期: 94.267分钟
每日圈数: 15.275719
详细信息
固有亮度:
5
最大亮度:
1.5
卫星平台:
Starlink v2.0 mini
覆盖范围:
全球
运营商:
太空探索技术公司
运营商所在国:
美国
制造商(研发单位):
太空探索技术公司
制造商所在国:
美国
使用方式:
暂无
卫星简介
星链(Starlink)计划是由太空探索技术公司(SpaceX)提出的一个巨型低轨卫星互联网星座项目,计划在2019年至2024年间在太空搭建由约1.2万颗卫星组成的“星链”网络,其中1584颗将部署在地球上空550千米处的近地轨道,并从2020年开始工作。该卫星仍在工作。
2D轨道图
3D轨道图
轨道高度分析图
轨道倾角分析图
轨道综合分析图
查看轨道综合分析图